星链-31534 (STARLINK-31534 )

导读

STARLINK-31534是美国SpaceX公司星链(Starlink)星座的卫星,于2024年4月5日发射升空。星链旨在构建全球卫星互联网,可提供覆盖全球的高速宽带接入服务,该卫星部署于低地球轨道,属于星链大规模星座部署中的一员。作为低轨卫星互联网星座的组成部分,它可为民用通信提供支撑,同时星链系统也引发全球对于太空军事化和轨道资源竞争的广泛关注,推动了各国加快卫星互联网建设进程。

基本信息
目录编号:
59398
目录名称:
STARLINK-31534
国际标识:
2024-064A
轨道中心:
EARTH
卫星名称:
星链-31534
卫星全名:
星链-31534 (STARLINK-31534 )
卫星状态:
在轨 (已飞行883 天)
发射日期:
2024-04-05 UTC
国别 :
美国 (US)
星等 :
--
轨道信息
数据来源 国际轨道数据 AOE轨道数据
星历时间 2026-09-05T06:29:19+0800
18小时前
查看轨道信息
2026-09-03T22:00:00+0800
2天前
查看轨道信息
半长轴 6861.189km 6861.162km
偏心率 0.0001386 0.0000018
轨道倾角 43.001° 43.009°
近地点辐角 262.073° 296.310°
升交点赤经 123.507° 131.156°
平近点角 97.997° 170.716°
近地点 482.101km 483.012km
远地点 484.003km 483.038km
周期 94.267分钟 94.266分钟
每日圈数 15.275793 15.275883
详细信息
固有亮度:
5
最大亮度:
0.3
卫星平台:
Starlink v2.0 mini
覆盖范围:
全球
运营商:
太空探索技术公司
运营商所在国:
美国
制造商(研发单位):
太空探索技术公司
制造商所在国:
美国
使用方式:
暂无
卫星简介
星链(Starlink)计划是由太空探索技术公司(SpaceX)提出的一个巨型低轨卫星互联网星座项目,计划在2019年至2024年间在太空搭建由约1.2万颗卫星组成的“星链”网络,其中1584颗将部署在地球上空550千米处的近地轨道,并从2020年开始工作。该卫星仍在工作。
2D轨道图
3D轨道图
轨道高度分析图
轨道倾角分析图
轨道综合分析图
查看轨道综合分析图
交会数据列表
事件ID 空间交会对象 最接近时刻(TCA) 交会距离 交会风险概率(CRP) 交会风险指数(CRI) 操作
CDM_260908-021805-939806-681221
2026-09-08T
02:18:09+0000
0.256 km
中距离
4.058636E-4 高风险 0.87
CDM_260903-084505-322605-939821
2026-09-03T
08:45:12+0000
1.358 km
极远距离
9.135849E-6 低风险 0.54
CDM_260908-004305-939806-681221
2026-09-08T
00:43:59+0000
1.958 km
极远距离
1.557805E-6 低风险 0.39
CDM_260829-201505-939806-681222
2026-08-29T
20:15:02+0000
2.488 km
极远距离
9.528631E-7 极低风险 0.35
CDM_260908-035205-939806-681221
2026-09-08T
03:52:18+0000
2.502 km
极远距离
9.452051E-7 极低风险 0.35